Regional Weather Roundup
Issued by NWS Jackson, KY

Home | Current Version | Previous Version | Graphics & Text | Print | Product List | Glossary On
Versions: 1 2 3 4 5 6 7 8 9 10 11 12 13 14 15 16 17 18 19 20 21 22 23 24 25 26 27 28 29 30 31 32 33 34 35 36 37 38 39 40 41 42 43 44 45 46 47 48 49 50
000
ASUS43 KJKL 241219
RWRJKL

EAST KENTUCKY HOURLY WEATHER ROUNDUP
NATIONAL WEATHER SERVICE JACKSON KY
800 AM EDT FRI OCT 24 2014

NOTE: "FAIR" INDICATES FEW OR NO CLOUDS BELOW 12,000 FEET WITH
NO SIGNIFICANT WEATHER AND/OR OBSTRUCTIONS TO VISIBILITY.

* THESE REPORTS ARE NOT UNDER NWS QUALITY CONTROL AND MAY NOT
  REPORT WEATHER SUCH AS PRECIPITATION AND FOG.

KYZ079-080-083-085-087-088-110-112-115-119-120-241300
...EASTERN KENTUCKY...

CITY           SKY/WX    TMP DP  RH WIND       PRES   REMARKS
JACKSON        CLOUDY    43  41  93 CALM      30.13R
6HR MIN TEMP:  42; 6HR MAX TEMP:  46;

LONDON         CLOUDY    44  40  85 CALM      30.13S
6HR MIN TEMP:  42; 6HR MAX TEMP:  44;

SOMERSET*      PTCLDY    41  41 100 CALM      30.14F
MONTICELLO*    FOG       39  39 100 CALM      30.14F VSB 1
6HR MIN TEMP:  41; 6HR MAX TEMP:  44;

MIDDLESBORO*   FOG       41  41 100 CALM      30.14S VSB 1/2
6HR MIN TEMP:  40; 6HR MAX TEMP:  41;

HARLAN APT*    CLOUDY    41  41 100 CALM      30.13S VSB 1
HAZARD APT*    SUNNY     41  41 100 CALM      30.13
BLACK MTN*       N/A     46  25  42 N3          N/A
PIKEVILLE APT* FOG       39  39 100 S3        30.12S VSB 0
BIG SANDY*     CLOUDY    42  41  97 CALM      30.12S
6HR MIN TEMP:  41; 6HR MAX TEMP:  44;

MOREHEAD APT*  CLOUDY    41  41 100 SW3       30.15S FOG
ASHLAND*       CLOUDY    43  39  87 CALM      30.11S VSB 0
$$

KYZ035-036-041-042-044-050-067-078-099-241300
...CENTRAL KENTUCKY...

CITY           SKY/WX    TMP DP  RH WIND       PRES   REMARKS
MT STERLING*   CLOUDY    37  37 100 CALM      30.15S FOG
FLEMING/MASON* CLEAR     39  39 100 W3        30.14S FOG
DANVILLE*      MOCLDY    41  41 100 CALM      30.14F
RICHMOND*      MOCLDY    41  39  93 CALM      30.13S
LEXINGTON      PTCLDY    40  37  89 SE3       30.13S FOG
6HR MIN TEMP:  40; 6HR MAX TEMP:  46;

FRANKFORT      CLEAR     37  35  92 CALM      30.12F
6HR MIN TEMP:  37; 6HR MAX TEMP:  43;

$$

KYZ091>093-OHZ055-061-077-WVZ005-015-034-035-042-241300
...SOUTHERN OHIO/WEST VIRGINIA...

CITY           SKY/WX    TMP DP  RH WIND       PRES   REMARKS
COVINGTON      PTCLDY    42  39  89 CALM      30.12S
COLUMBUS       CLOUDY    41  38  89 CALM      30.12S FOG
DAYTON         MOCLDY    39  37  92 CALM      30.12S
WILMINGTON     CLOUDY    42  38  85 CALM      30.11F
HUNTINGTON     CLOUDY    39  39 100 CALM      30.12S FOG
CHARLESTON     FOG       41  40  96 CALM      30.13R VSB 1/2
PINEVILLE*     FOG       40  40 100 MISG      30.17S VSB 1/4
BECKLEY        CLOUDY    37  35  92 CALM      30.10S FOG
BLUEFIELD      MOCLDY    39  36  89 SW5       30.11S
$$

VAZ002-007-008-TNZ017-027-036-066-071-241300
...SOUTHWEST VIRGINIA/EAST TENNESSEE...

CITY           SKY/WX    TMP DP  RH WIND       PRES   REMARKS
WISE*          MOCLDY    41  39  93 CALM      30.12S
JONESVILLE*    PTSUNNY   37  37 100 CALM      30.15S
ABINGDON*      MOCLDY    40  39  97 E3        30.11F FOG
BRISTOL        MOCLDY    38  36  92 CALM      30.12F
KNOXVILLE      MOCLDY    43  41  93 NE5       30.11S
OAK RIDGE      CLOUDY    47  44  90 CALM      30.13F
CROSSVILLE     MOCLDY    44  40  85 CALM      30.11S
NASHVILLE      PTCLDY    45  43  93 CALM      30.13R
$$

...KEY TO REMARKS...
VSB - VISIBILITY IN MILES
WCI - WIND CHILL INDEX
HX  - HEAT INDEX

$$



USA.gov is the U.S. government's official web portal to all federal, state and local government web resources and services.